[[{"header":{"parameterUnit":"m.s-1","parameterCategory":1,"la1":30.2991,"la2":30.254,"lo1":-89.0895,"lo2":-89.0444,"dy":0.0017,"dx":0.0017,"nx":28,"ny":28,"refTime":"2024-04-05T09:00:00:Z","depth":0,"parameterNumber":2,"parameterNumberName":"U-component_of_WINDS"},"data":[0,0,0,0,0,0,0,0,0,0,0,0,0,0,0,0,0,0,0,0,0,0,0,0,0,0,0,0,0,0,0,0,0,0,0,0,0,0,0,0,0,0,0,0,0,0,0,0,0,0,0,0,0,0,0,0,0,0,-1.6602,-1.6601,0,-1.6582,-1.6582,-1.6582,-1.6493,-1.6491,-1.6489,-1.6487,-1.6471,-1.6472,-1.6474,0,0,0,0,0,0,0,0,0,0,0,0,0,-1.6565,-1.6566,-1.6602,-1.6601,-1.6601,-1.6582,-1.6582,-1.6582,-1.6493,-1.6491,-1.6488,-1.6486,-1.647,-1.6472,-1.6474,0,0,0,0,0,0,0,0,0,0,0,0,0,-1.6567,-1.6566,-1.6602,-1.6555,-1.655,-1.6582,-1.6582,-1.6582,-1.6494,-1.6491,-1.6487,-1.6485,-1.647,-1.6472,-1.6474,-1.6551,0,0,-1.6481,-1.6482,0,0,0,0,0,0,0,0,-1.6567,-1.6568,-1.6562,-1.6558,-1.6553,-1.6537,-1.6563,-1.6572,-1.6495,-1.6515,-1.6487,-1.6483,-1.6495,-1.6495,-1.6499,-1.6551,-1.655,-1.6481,-1.6483,-1.6484,-1.6484,0,0,0,0,0,0,0,-1.6567,-1.6569,-1.6594,-1.6562,-1.6556,-1.6535,-1.6532,-1.6564,-1.6523,-1.6513,-1.6507,-1.6505,-1.6492,-1.6497,-1.6498,-1.655,-1.6481,-1.6483,-1.6485,-1.6486,-1.6663,-1.6666,0,0,0,0,0,0,-1.6573,-1.6569,-1.6595,-1.6593,-1.6552,-1.6539,-1.6535,-1.6545,-1.6523,-1.6516,-1.6508,-1.6501,-1.6494,-1.6495,-1.6497,-1.6586,-1.6484,-1.6486,-1.6487,-1.666,-1.6664,-1.6667,0,0,0,0,0,0,-1.6572,-1.6576,-1.6595,-1.6579,-1.658,-1.6542,-1.6555,-1.6546,-1.6551,-1.6519,-1.6511,-1.652,-1.6492,-1.6494,-1.6538,-1.6584,-1.6487,-1.6489,-1.6656,-1.6661,-1.6666,-1.6765,0,0,0,0,0,0,-1.6572,-1.6576,-1.6605,-1.6581,-1.6581,-1.6637,-1.6557,-1.6548,-1.6554,-1.6545,-1.6528,-1.6522,-1.649,-1.6535,-1.654,-1.6585,-1.6491,-1.6652,-1.6658,-1.6664,-1.6757,-1.6772,-1.6785,0,0,0,0,0,-1.6571,-1.6635,-1.6607,-1.661,-1.6616,-1.6639,-1.664,-1.66,-1.6558,-1.6587,-1.6566,-1.6523,-1.6578,-1.654,-1.6546,-1.6592,-1.6648,-1.6656,-1.6663,-1.6751,-1.6769,-1.6785,0,0,0,0,0,0,-1.6667,-1.6631,-1.6599,-1.6657,-1.6652,-1.6624,-1.666,-1.6621,-1.6629,-1.662,-1.6571,-1.6568,-1.662,-1.661,-1.6569,-1.6665,-1.6606,-1.6615,-1.667,-1.6688,-1.6702,-1.6704,-1.6493,0,0,0,0,0,-1.6695,-1.6715,-1.6683,-1.6737,-1.6735,-1.6698,-1.6707,-1.6676,-1.6669,-1.6667,-1.665,-1.6646,-1.6662,-1.6674,-1.6687,-1.6754,-1.675,-1.6789,-1.6803,-1.6815,-1.6824,-1.6859,-1.6876,-1.6692,-1.6692,-1.6692,0,0,-1.6753,-1.6735,-1.6752,-1.6756,-1.6748,-1.6772,-1.6697,-1.6725,-1.6743,-1.6672,-1.6712,-1.6699,-1.6692,-1.6748,-1.6772,-1.6741,-1.6873,-1.6824,-1.6834,-1.6836,-1.6868,-1.6886,-1.6901,-1.6697,-1.6696,-1.6695,0,0,-1.6871,-1.6859,-1.6903,-1.6896,-1.6885,-1.6859,-1.6869,-1.6847,-1.6835,-1.6875,-1.6822,-1.6842,-1.6871,-1.6867,-1.687,-1.6984,-1.6944,-1.699,-1.7065,-1.7099,-1.7114,-1.7126,-1.7168,-1.7184,-1.6998,-1.6998,-1.6999,0,-1.6945,-1.6978,-1.6931,-1.6962,-1.6966,-1.69,-1.6944,-1.694,-1.6935,-1.6939,-1.6904,-1.6938,-1.6929,-1.6983,-1.7011,-1.7014,-1.7025,-1.6993,-1.7115,-1.7127,-1.7139,-1.7178,-1.7194,-1.7004,-1.7003,-1.7003,-1.7002,0,-1.707,-1.7093,-1.7129,-1.7124,-1.7131,-1.7169,-1.7129,-1.7142,-1.711,-1.7088,-1.7129,-1.7114,-1.7123,-1.7133,-1.7104,-1.7184,-1.7165,-1.7124,-1.7063,-1.7163,-1.7199,-1.7213,-1.7012,-1.701,-1.7009,-1.7007,0,0,-1.7251,-1.7216,-1.7231,-1.7227,-1.7209,-1.7226,-1.7261,-1.7268,-1.728,-1.7278,-1.7306,-1.7331,-1.7292,-1.7294,-1.7263,-1.7293,-1.7386,-1.7248,-1.7247,-1.7275,-1.7474,-1.7507,-1.7525,-1.7358,-1.7361,-1.7363,-1.7475,0,-1.7365,-1.7421,-1.7379,-1.7443,-1.7464,-1.7401,-1.7431,-1.7423,-1.7403,-1.7419,-1.7397,-1.7416,-1.7362,-1.7363,-1.739,-1.7369,-1.7425,-1.736,-1.7386,-1.7387,-1.7392,-1.7543,-1.7578,-1.7685,-1.7489,-1.7491,-1.7493,0,-1.7506,-1.7507,-1.7573,-1.7549,-1.7556,-1.7584,-1.7587,-1.7602,-1.7592,-1.7575,-1.7577,-1.7537,-1.757,-1.7508,-1.7554,-1.751,-1.7518,-1.7509,-1.7512,-1.7515,-1.7448,-1.7552,-1.7718,-1.7735,-1.7514,-1.7513,-1.7511,0,-1.7633,-1.7652,-1.7693,-1.7692,-1.7664,-1.7685,-1.7675,-1.7661,-1.7668,-1.767,-1.7674,-1.7681,-1.7685,-1.7692,-1.7655,-1.7614,-1.7705,-1.7641,-1.7694,-1.7695,-1.7718,-1.7717,-1.7889,-1.772,-1.772,-1.7719,-1.7719,0,-1.7765,-1.7809,-1.775,-1.7776,-1.7822,-1.7773,-1.782,-1.7804,-1.7792,-1.7814,-1.7759,-1.7782,-1.7731,-1.7748,-1.7719,-1.7762,-1.7764,-1.7752,-1.7744,-1.7758,-1.776,-1.7764,-1.7756,-1.7724,-1.7723,-1.7722,-1.7721,0,-1.7917,-1.7878,-1.792,-1.7889,-1.7883,-1.7918,-1.7893,-1.7916,-1.7891,-1.792,-1.7924,-1.7885,-1.7902,-1.7865,-1.7878,-1.7859,-1.7919,-1.7898,-1.7922,-1.7917,-1.7972,-1.7968,-1.8155,-1.8177,-1.7992,-1.7994,-1.7995,0,-1.8005,-1.8036,-1.8008,-1.8018,-1.801,-1.8027,-1.8033,-1.7985,-1.7994,-1.7983,-1.8008,-1.802,-1.8028,-1.8058,-1.8032,-1.8041,-1.8022,-1.8086,-1.8023,-1.8036,-1.8024,-1.8024,-1.8027,-1.81,-1.8103,-1.8104,-1.8106,0,-1.8166,-1.8145,-1.8154,-1.8157,-1.8165,-1.8165,-1.8162,-1.8174,-1.8123,-1.8135,-1.8151,-1.8156,-1.8168,-1.8181,-1.8183,-1.8174,-1.8133,-1.8125,-1.8138,-1.8154,-1.8167,-1.8162,-1.796,-1.8122,-1.8121,-1.8119,-1.8118,-1.8118,-1.8289,-1.8314,-1.8297,-1.831,-1.8301,-1.8299,-1.8319,-1.8295,-1.8307,-1.8312,-1.8283,-1.8305,-1.8293,-1.8292,-1.8286,-1.8304,-1.8275,-1.8293,-1.8298,-1.8304,-1.8314,-1.8162,-1.8304,-1.8303,-1.8303,-1.8303,-1.8302,0,-1.8448,-1.8434,-1.8445,-1.8441,-1.8451,-1.8407,-1.8401,-1.8413,-1.8433,-1.8424,-1.8431,-1.8449,-1.8461,-1.8435,-1.8443,-1.8462,-1.8443,-1.8466,-1.8465,-1.8464,-1.8339,-1.8327,-1.8481,-1.8481,-1.8481,-1.8481,-1.8481,-1.8481,-1.8532,-1.8572,-1.8549,-1.8584,-1.8569,-1.8589,-1.8589,-1.8587,-1.8579,-1.8602,-1.8611,-1.8592,-1.8577,-1.8583,-1.8592,-1.8584,-1.8591,-1.862,-1.8606,-1.849,-1.8473,-1.8456,-1.8445,-1.8622,-1.8622,-1.873,-1.8731,-1.8732]},{"header":{"parameterUnit":"m.s-1","parameterCategory":1,"la1":30.2991,"la2":30.254,"lo1":-89.0895,"lo2":-89.0444,"dy":0.0017,"dx":0.0017,"nx":28,"ny":28,"refTime":"2024-04-05T09:00:00:Z","depth":0,"parameterNumber":3,"parameterNumberName":"V-component_of_WINDS"},"data":[0,0,0,0,0,0,0,0,0,0,0,0,0,0,0,0,0,0,0,0,0,0,0,0,0,0,0,0,0,0,0,0,0,0,0,0,0,0,0,0,0,0,0,0,0,0,0,0,0,0,0,0,0,0,0,0,0,0,-2.8483,-2.8484,0,-2.8544,-2.8544,-2.8545,-2.8517,-2.8516,-2.8514,-2.8513,-2.8571,-2.8574,-2.8577,0,0,0,0,0,0,0,0,0,0,0,0,0,-2.834,-2.8343,-2.8483,-2.8484,-2.8485,-2.8543,-2.8544,-2.8545,-2.8518,-2.8516,-2.8514,-2.8512,-2.857,-2.8573,-2.8577,0,0,0,0,0,0,0,0,0,0,0,0,0,-2.8401,-2.8344,-2.8483,-2.8478,-2.8478,-2.8543,-2.8544,-2.8545,-2.8518,-2.8516,-2.8514,-2.8512,-2.8569,-2.8573,-2.8577,-2.8649,0,0,-2.8591,-2.8593,0,0,0,0,0,0,0,0,-2.8398,-2.8407,-2.8478,-2.8479,-2.8479,-2.8521,-2.8515,-2.858,-2.8519,-2.8503,-2.8513,-2.851,-2.8556,-2.8561,-2.8577,-2.8652,-2.8655,-2.8591,-2.8594,-2.8596,-2.8597,0,0,0,0,0,0,0,-2.8394,-2.8404,-2.8507,-2.8479,-2.848,-2.8472,-2.8478,-2.8527,-2.8541,-2.8504,-2.8502,-2.851,-2.8556,-2.8573,-2.8578,-2.8655,-2.8591,-2.8595,-2.8598,-2.8599,-2.8791,-2.8794,0,0,0,0,0,0,-2.839,-2.8401,-2.8505,-2.8509,-2.8432,-2.8476,-2.8483,-2.8509,-2.854,-2.8543,-2.8512,-2.8508,-2.8567,-2.8573,-2.858,-2.8666,-2.8596,-2.86,-2.8602,-2.8789,-2.8792,-2.8795,0,0,0,0,0,0,-2.8387,-2.84,-2.8502,-2.8454,-2.8467,-2.8481,-2.8511,-2.8512,-2.8529,-2.8546,-2.8548,-2.8527,-2.8565,-2.8574,-2.8632,-2.8668,-2.8602,-2.8606,-2.8786,-2.879,-2.8793,-2.8838,0,0,0,0,0,0,-2.8383,-2.8399,-2.8427,-2.8455,-2.8469,-2.8555,-2.8513,-2.8515,-2.8538,-2.8534,-2.8562,-2.8564,-2.8564,-2.8626,-2.8637,-2.8672,-2.8609,-2.8783,-2.8788,-2.8792,-2.8834,-2.8843,-2.8851,0,0,0,0,0,-2.8378,-2.8437,-2.8429,-2.8442,-2.8505,-2.8557,-2.8565,-2.8565,-2.8541,-2.8568,-2.8579,-2.8563,-2.8662,-2.8632,-2.8644,-2.8682,-2.8781,-2.8786,-2.8792,-2.883,-2.8841,-2.8851,0,0,0,0,0,0,-2.8411,-2.844,-2.8432,-2.8502,-2.8527,-2.8552,-2.8588,-2.8577,-2.861,-2.8605,-2.8602,-2.8609,-2.8669,-2.8681,-2.8647,-2.8752,-2.8717,-2.8726,-2.8742,-2.8753,-2.8762,-2.8757,-2.8613,0,0,0,0,0,-2.8427,-2.8468,-2.8491,-2.855,-2.8563,-2.8574,-2.8596,-2.8594,-2.862,-2.863,-2.8645,-2.867,-2.8707,-2.8731,-2.8765,-2.8836,-2.884,-2.8867,-2.8876,-2.8883,-2.889,-2.8927,-2.8938,-2.8813,-2.8813,-2.8813,0,0,-2.8459,-2.848,-2.8506,-2.8557,-2.8577,-2.8618,-2.8583,-2.8628,-2.8658,-2.8637,-2.8693,-2.8705,-2.8732,-2.8797,-2.8826,-2.8809,-2.8926,-2.889,-2.8895,-2.8898,-2.8934,-2.8945,-2.8956,-2.8816,-2.8816,-2.8815,0,0,-2.8539,-2.8559,-2.8611,-2.8631,-2.8662,-2.8669,-2.8681,-2.8708,-2.8716,-2.8772,-2.8757,-2.8792,-2.8856,-2.8876,-2.8894,-2.8982,-2.8967,-2.8993,-2.9038,-2.9074,-2.9084,-2.9093,-2.9123,-2.9134,-2.9,-2.9,-2.9,0,-2.8574,-2.8637,-2.8638,-2.8684,-2.8707,-2.8691,-2.8742,-2.8762,-2.8802,-2.8817,-2.8798,-2.8877,-2.8894,-2.8963,-2.8984,-2.9,-2.9013,-2.8989,-2.9083,-2.9091,-2.91,-2.9128,-2.914,-2.9003,-2.9002,-2.9002,-2.9002,0,-2.8679,-2.8723,-2.876,-2.8801,-2.8827,-2.8876,-2.8883,-2.8909,-2.8905,-2.8913,-2.8971,-2.8991,-2.9029,-2.9046,-2.9041,-2.9114,-2.9102,-2.9083,-2.9047,-2.9114,-2.9141,-2.9152,-2.9007,-2.9006,-2.9005,-2.9004,0,0,-2.878,-2.8821,-2.8835,-2.8853,-2.8886,-2.8919,-2.8966,-2.9005,-2.9028,-2.9056,-2.9094,-2.9149,-2.9131,-2.9152,-2.915,-2.9182,-2.9249,-2.9159,-2.9159,-2.9174,-2.9328,-2.9342,-2.9355,-2.924,-2.9242,-2.9244,-2.9326,0,-2.8862,-2.8946,-2.8948,-2.9025,-2.9065,-2.9051,-2.9092,-2.9116,-2.9125,-2.9158,-2.9167,-2.9206,-2.918,-2.9193,-2.9224,-2.9234,-2.928,-2.9228,-2.9275,-2.9276,-2.9267,-2.9369,-2.9383,-2.946,-2.9336,-2.9338,-2.9339,0,-2.8968,-2.9001,-2.9082,-2.9109,-2.9126,-2.9163,-2.9198,-2.9231,-2.9258,-2.9262,-2.9286,-2.9279,-2.9326,-2.929,-2.9353,-2.9319,-2.9338,-2.9346,-2.9348,-2.9352,-2.9311,-2.9374,-2.9484,-2.9495,-2.9356,-2.9355,-2.9354,0,-2.9032,-2.9097,-2.9154,-2.917,-2.9203,-2.9229,-2.9244,-2.9268,-2.9291,-2.9322,-2.9337,-2.9372,-2.9391,-2.9418,-2.942,-2.9394,-2.9484,-2.9449,-2.9488,-2.9488,-2.9506,-2.9505,-2.962,-2.9521,-2.952,-2.952,-2.952,0,-2.9122,-2.9172,-2.9183,-2.9218,-2.9273,-2.9275,-2.9329,-2.9341,-2.9363,-2.9399,-2.9389,-2.9422,-2.9424,-2.9458,-2.946,-2.9512,-2.9521,-2.9524,-2.9524,-2.9525,-2.9524,-2.9536,-2.9531,-2.9523,-2.9523,-2.9522,-2.9521,0,-2.9203,-2.9213,-2.9274,-2.9301,-2.9309,-2.9348,-2.937,-2.9403,-2.9411,-2.9457,-2.9467,-2.948,-2.9519,-2.9525,-2.957,-2.9572,-2.9634,-2.9629,-2.9625,-2.9624,-2.9663,-2.9659,-2.9788,-2.9805,-2.9696,-2.9697,-2.9698,0,-2.926,-2.9298,-2.933,-2.9354,-2.937,-2.9409,-2.9433,-2.9436,-2.9461,-2.9494,-2.9522,-2.9561,-2.9592,-2.9656,-2.9668,-2.9703,-2.9697,-2.974,-2.9702,-2.9702,-2.9696,-2.9694,-2.9697,-2.9747,-2.9748,-2.9749,-2.975,0,-2.9358,-2.9361,-2.9397,-2.9435,-2.9464,-2.9493,-2.952,-2.954,-2.9546,-2.9575,-2.9616,-2.964,-2.9687,-2.9726,-2.976,-2.9774,-2.9763,-2.9762,-2.9773,-2.9774,-2.977,-2.9771,-2.9644,-2.9759,-2.9758,-2.9758,-2.9757,-2.9757,-2.9428,-2.9461,-2.9489,-2.9529,-2.955,-2.9576,-2.9608,-2.962,-2.9655,-2.9695,-2.9694,-2.9739,-2.9764,-2.9809,-2.9825,-2.9859,-2.9845,-2.9861,-2.9865,-2.9868,-2.9871,-2.9766,-2.9866,-2.9866,-2.9865,-2.9865,-2.9865,0,-2.9525,-2.9542,-2.9579,-2.9619,-2.965,-2.9639,-2.9668,-2.9694,-2.9735,-2.9759,-2.9791,-2.9837,-2.9874,-2.989,-2.9926,-2.995,-2.9946,-2.9959,-2.9957,-2.996,-2.9883,-2.987,-2.9962,-2.9962,-2.9962,-2.9962,-2.9962,-2.9962,-2.9579,-2.9635,-2.9641,-2.9706,-2.9723,-2.9768,-2.9786,-2.9809,-2.9829,-2.9882,-2.9913,-2.9924,-2.9944,-2.9982,-3.0015,-3.0018,-3.0031,-3.0047,-3.0048,-2.9975,-2.9965,-2.9956,-2.9943,-3.005,-3.005,-3.0122,-3.0123,-3.0123]}]]